Temperature
14 14 14 14 14 14 14 14 14 13 13 13 12 12 12 12 12 12 12 12 12 12 12 12 12 12 12 12 12 12 12 12 12 12 12 12 11 11
14 14 14 14 14 14 13 13 13 13 13 12 12 12 12 12 12 12 12 12 12 12 12 12 12 11 11 11 11 11 11 11 11 11 11 11 11 11
14 14 14 14 14 13 13 13 13 13 13 12 12 12 12 12 12 12 12 12 11 11 11 11 11 11 11 11 10 10 10 10 10 10 10 10 10 10
14 14 13 13 13 13 13 13 13 13 13 12 12 12 12 12 12 11 11 11 11 11 11 11 10 10 10 10 10 10 10 10 10 10 10 10 10 10
14 13 13 13 13 13 13 13 13 13 12 12 12 12 12 12 11 11 11 11 11 11 10 10 10 10 10 10 9 9 9 9 9 9 9 9 9 9
13 13 13 13 13 13 13 13 12 12 12 12 12 12 12 11 11 11 11 11 11 10 10 10 10 9 9 9 9 9 9 9 8 8 8 9 8 8
13 13 13 13 13 13 13 12 12 12 12 12 12 12 12 11 11 11 11 11 10 10 10 10 9 9 9 9 9 8 8 8 8 8 8 8 8 8
13 13 13 13 13 13 12 12 12 12 12 12 12 12 11 11 11 11 10 10 10 10 9 9 9 9 9 9 8 8 8 8 8 7 7 7 7 7
13 13 13 13 13 13 12 12 12 12 12 11 11 11 11 11 10 10 10 10 9 9 9 9 9 9 8 8 8 8 7 7 7 7 7 7 7 7
13 13 13 13 13 12 12 12 12 12 11 11 11 11 11 10 10 10 10 9 9 9 9 9 8 8 8 8 7 7 7 7 7 6 6 6 6 6
13 13 13 13 12 12 12 12 12 12 11 11 11 11 10 10 10 10 9 9 9 9 8 8 8 8 8 7 7 7 6 6 6 6 6 6 6 6
13 13 13 12 12 12 12 12 12 12 11 11 11 10 10 10 10 9 9 9 9 8 8 8 7 7 7 7 7 6 6 6 6 5 5 5 5 5
13 13 12 12 12 12 12 11 11 11 11 11 10 10 10 10 9 9 9 8 8 8 8 7 7 7 6 6 6 6 6 5 5 5 5 5 5 5
13 12 12 12 12 11 11 11 11 11 11 10 10 10 10 9 9 9 8 8 8 8 7 7 6 6 6 6 6 6 5 5 5 5 5 4 4 4
12 12 12 12 11 11 11 11 11 10 10 10 10 10 9 9 9 8 8 8 7 7 7 7 6 6 6 5 5 5 5 5 4 4 4 4 4 4
12 12 12 11 11 11 11 10 10 10 10 9 9 9 9 9 8 8 8 7 7 7 7 6 6 6 5 5 5 4 4 4 4 4 4 4 3 3
12 11 11 11 11 11 10 10 10 10 9 9 9 9 8 8 8 8 7 7 7 6 6 6 5 5 5 4 4 4 4 3 3 3 3 3 3 3
11 11 11 11 11 10 10 10 10 9 9 9 8 8 8 8 7 7 7 6 6 6 6 5 5 5 4 4 3 3 3 3 3 3 2 2 2 2
11 11 11 10 10 10 10 10 9 9 9 8 8 8 7 7 7 7 6 6 5 5 5 4 4 4 4 3 3 3 2 2 2 2 2 2 1 2
10 10 10 10 10 9 9 9 9 9 8 8 8 7 7 7 6 6 5 5 5 4 4 4 4 3 3 2 2 2 2 1 1 1 1 1 1 1
10 10 10 9 9 9 9 9 8 8 8 7 7 7 7 6 6 5 5 5 4 4 3 3 3 3 2 2 2 2 2 1 1 0 0 0 0 0
10 9 9 9 9 9 8 8 8 8 7 7 7 6 6 6 5 5 4 4 4 3 3 3 2 2 2 1 1 1 1 1 0 0 -0 -1 -1 -1
9 9 9 9 8 8 8 8 7 7 7 7 6 6 5 5 5 4 4 3 3 3 3 2 2 2 1 1 1 0 0 0 0 0 -0 -0 -1 -1
Wind_Speed
3 3 3 2 2 2 2 3 4 2 1 2 2 3 5 6 7 7 7 7 8 8 8 9 9 9 10 11 11 12 13 13 13 12 12 12 11 11
2 3 3 2 2 2 2 2 2 4 2 1 1 2 3 4 6 7 6 7 7 8 8 8 8 8 9 9 10 11 11 12 13 12 12 12 11 11
2 3 2 2 2 2 2 2 2 3 3 0 1 1 2 2 5 6 7 7 6 7 7 7 7 7 7 8 9 10 10 11 12 12 11 11 11 10
2 2 2 2 2 2 2 2 2 2 3 2 1 1 1 2 2 3 5 5 6 7 7 7 7 7 7 7 8 9 9 10 11 11 11 11 11 10
2 2 2 3 2 1 2 2 2 2 2 2 0 1 1 1 2 3 4 5 5 6 6 7 7 7 7 7 7 8 9 9 9 10 11 11 11 10
2 2 2 3 3 3 2 3 3 3 3 2 1 1 1 1 1 2 3 3 3 5 5 6 7 8 8 7 7 8 8 9 9 10 10 10 10 10
1 1 2 3 4 4 3 4 4 3 2 2 1 0 1 1 1 1 1 2 2 2 3 4 5 6 8 7 7 7 8 8 8 9 10 10 10 10
2 1 1 1 2 2 3 5 6 5 4 3 1 2 2 2 1 1 0 1 2 2 1 3 3 3 5 6 6 7 7 7 7 8 9 9 9 9
3 2 1 1 2 2 1 2 2 3 5 5 4 4 3 4 2 1 1 1 2 3 1 2 2 3 4 5 6 6 6 6 7 8 8 9 9 9
3 3 3 2 2 3 3 2 0 0 2 3 4 4 4 4 5 3 3 1 2 2 0 1 2 2 3 5 6 6 6 6 7 8 8 9 9 9
3 3 4 3 4 5 4 3 0 1 1 2 2 1 1 2 4 3 1 1 2 2 1 1 2 2 2 3 5 6 6 7 8 8 8 8 8 8
2 2 4 5 5 5 5 4 3 2 0 1 2 2 3 2 2 3 3 2 1 2 1 1 1 1 3 2 3 5 6 7 8 9 9 9 8 6
3 3 3 5 6 6 6 5 5 3 2 1 1 1 2 2 2 1 2 3 3 3 2 1 1 1 2 3 3 3 4 5 6 7 9 9 9 6
4 4 4 5 5 5 4 5 5 3 2 2 1 0 1 1 1 1 0 1 2 3 2 2 2 2 2 2 3 3 3 4 5 6 8 9 9 8
4 6 5 5 4 3 4 5 4 3 2 2 2 2 2 2 0 1 1 1 2 2 2 1 2 2 2 3 3 2 3 3 4 5 6 6 6 6
2 3 3 3 2 2 2 2 2 3 3 3 3 2 1 0 0 0 0 1 1 3 4 3 2 2 2 2 3 3 3 3 4 5 5 5 6 6
3 1 1 1 1 1 1 1 1 2 2 2 2 2 1 1 1 1 1 0 1 2 3 3 4 2 2 2 2 3 4 4 4 5 4 5 5 7
5 3 3 3 4 4 3 3 2 3 3 3 3 3 2 2 1 1 0 1 1 2 2 2 2 2 2 2 3 4 3 4 5 5 4 5 6 6
4 4 4 4 4 4 4 4 3 3 3 3 3 3 2 2 2 1 1 1 2 2 3 2 1 1 2 5 3 3 3 4 4 4 4 5 6 7
3 4 5 5 5 5 4 4 3 3 3 3 3 3 3 2 2 2 2 3 2 3 3 2 2 2 4 4 4 4 5 4 4 5 5 5 6 8
4 4 4 5 4 4 4 4 4 3 3 3 3 3 3 3 3 3 3 4 3 3 4 4 4 4 3 1 3 5 4 6 6 5 5 5 6 6
4 4 3 4 4 4 4 4 3 3 3 3 3 4 4 4 4 4 4 3 3 3 4 4 3 2 1 3 5 6 6 6 8 9 8 7 5 5
4 4 3 3 3 3 3 4 4 4 4 4 4 4 4 4 4 3 3 3 3 3 3 3 3 2 3 3 5 5 7 7 5 6 6 9 10 12
Wind_Direction
93 103 101 94 105 113 129 140 140 132 330 322 340 346 6 21 21 26 23 28 32 33 34 35 34 32 31 29 27 23 20 18 17 18 20 20 18 15
94 100 92 91 92 96 113 112 126 144 165 279 293 328 2 22 25 26 23 24 27 30 30 29 29 30 29 27 25 21 19 18 17 19 19 19 18 17
81 101 90 94 95 87 94 99 103 122 140 300 326 346 8 11 11 19 21 21 22 26 27 27 27 27 24 22 21 19 17 16 16 15 14 13 11 11
116 110 106 108 95 88 98 104 112 125 143 155 320 340 343 346 358 4 12 18 17 19 22 24 23 22 21 19 16 15 14 13 13 12 9 8 6 5
149 147 154 132 125 119 115 118 117 114 121 143 209 331 341 359 14 10 13 7 11 14 21 23 23 20 16 13 11 11 12 12 11 9 7 7 6 5
156 167 169 167 173 164 152 150 133 117 117 125 123 338 329 337 34 9 353 355 354 6 13 14 18 18 13 10 10 12 11 10 8 7 5 3 2 0
147 186 192 184 186 175 167 167 152 141 136 133 150 349 315 328 303 288 315 326 331 1 0 2 7 10 4 3 7 7 6 6 5 4 3 1 360 357
186 240 250 196 181 173 171 168 166 163 168 165 187 209 248 239 236 230 287 354 321 338 5 330 359 345 346 354 358 2 2 2 2 0 359 358 358 357
195 201 192 128 129 122 117 136 168 186 183 175 184 214 219 216 190 213 225 227 257 290 341 305 325 312 327 344 352 354 356 358 0 359 356 355 354 352
203 198 191 213 185 160 140 109 67 252 201 183 194 218 221 207 193 196 202 220 281 309 168 270 303 295 317 329 340 347 353 355 353 352 350 350 350 349
214 201 195 212 208 176 151 150 139 311 112 168 185 206 242 214 171 135 135 105 303 296 271 227 287 297 303 309 325 338 345 350 351 349 347 347 347 347
227 224 215 212 210 189 174 172 195 244 211 62 44 26 35 46 149 164 179 181 232 278 265 220 286 326 314 303 330 339 344 344 349 350 345 341 340 343
212 232 230 216 211 200 184 187 204 192 152 137 83 24 29 34 32 43 174 184 200 243 252 195 249 270 268 296 315 327 334 335 339 341 341 338 336 336
211 221 219 204 194 189 185 191 189 162 137 128 111 317 305 299 315 5 118 188 205 235 259 203 225 230 247 277 289 308 318 329 335 333 332 332 333 332
213 208 202 195 183 183 187 185 174 160 157 171 209 236 240 247 286 359 15 37 16 342 328 270 233 232 222 245 269 286 302 312 326 327 327 328 323 325
198 183 174 172 165 173 170 165 170 183 185 198 214 227 232 250 298 278 285 324 341 330 347 351 307 220 230 246 249 275 282 295 317 319 315 315 319 320
157 129 137 161 183 195 186 193 189 183 198 206 202 206 215 221 265 266 227 239 261 293 312 333 353 0 245 235 259 274 285 289 296 305 308 309 306 313
156 176 199 202 206 210 210 214 210 209 210 204 206 208 209 214 236 263 225 215 248 274 291 308 334 347 341 303 240 260 283 290 300 303 299 301 305 309
181 199 207 211 215 215 212 210 215 216 204 200 206 212 212 215 220 235 241 246 260 271 282 290 292 264 297 299 292 244 262 293 303 301 294 288 293 302
207 210 214 213 213 212 212 213 216 209 204 208 210 209 206 210 220 229 231 234 250 272 289 294 268 247 250 272 282 289 279 278 290 294 296 293 288 294
223 226 223 216 215 214 216 213 206 208 209 207 210 210 206 204 219 226 229 236 245 263 275 282 274 272 262 274 287 293 293 292 285 285 295 303 307 308
220 226 231 228 216 209 209 208 205 205 205 211 218 216 211 209 217 225 228 236 247 254 269 281 293 288 252 262 277 288 298 306 306 296 286 277 283 291
222 221 223 222 221 211 205 206 207 213 213 212 216 219 215 216 219 222 228 233 242 254 267 284 294 281 267 263 274 285 293 302 306 308 303 301 290 286
Height
1557 1557 1557 1557 1557 1558 1558 1558 1558 1558 1558 1558 1558 1557 1557 1556 1555 1554 1553 1552 1551 1550 1548 1546 1545 1543 1541 1540 1538 1535 1533 1531 1528 1525 1523 1522 1520 1518
1558 1558 1558 1558 1558 1558 1558 1558 1558 1558 1557 1558 1557 1557 1557 1556 1555 1554 1553 1552 1551 1549 1547 1546 1544 1543 1541 1539 1537 1535 1532 1530 1527 1525 1523 1521 1519 1517
1558 1558 1558 1558 1558 1558 1558 1558 1558 1557 1557 1557 1557 1557 1556 1556 1555 1554 1553 1551 1550 1548 1547 1545 1543 1542 1540 1538 1536 1534 1532 1529 1527 1525 1523 1520 1518 1516
1558 1558 1558 1558 1558 1558 1557 1557 1557 1557 1557 1556 1556 1556 1556 1555 1554 1553 1552 1551 1549 1548 1546 1544 1543 1541 1539 1537 1535 1533 1531 1529 1527 1524 1522 1520 1518 1516
1557 1557 1557 1557 1557 1557 1557 1557 1557 1556 1556 1556 1555 1555 1555 1554 1553 1552 1551 1550 1548 1547 1545 1543 1542 1540 1538 1536 1534 1532 1530 1528 1526 1523 1521 1519 1517 1515
1557 1557 1557 1557 1557 1557 1556 1556 1556 1556 1556 1555 1555 1554 1554 1553 1552 1551 1550 1549 1547 1546 1544 1543 1541 1539 1537 1535 1533 1531 1528 1526 1524 1522 1520 1518 1516 1514
1556 1556 1556 1556 1556 1556 1556 1556 1555 1555 1555 1554 1553 1553 1552 1551 1550 1549 1548 1547 1545 1544 1543 1541 1540 1538 1536 1533 1531 1529 1527 1525 1523 1521 1519 1517 1515 1513
1555 1555 1555 1555 1555 1555 1555 1555 1554 1554 1553 1553 1552 1551 1550 1550 1549 1548 1547 1545 1544 1543 1541 1540 1538 1536 1534 1532 1530 1528 1525 1523 1521 1519 1517 1515 1513 1511
1554 1554 1554 1554 1554 1553 1553 1553 1553 1552 1552 1552 1550 1550 1549 1548 1547 1546 1545 1543 1542 1541 1539 1537 1536 1534 1532 1530 1528 1526 1524 1521 1519 1517 1515 1513 1511 1509
1552 1553 1552 1552 1552 1552 1551 1551 1550 1550 1550 1549 1549 1548 1547 1546 1545 1545 1543 1542 1540 1539 1537 1535 1533 1531 1529 1528 1526 1523 1521 1519 1517 1515 1513 1510 1508 1506
1550 1550 1550 1550 1550 1549 1549 1548 1548 1548 1547 1547 1546 1546 1545 1544 1543 1542 1540 1539 1537 1536 1535 1533 1530 1528 1526 1525 1523 1521 1519 1517 1515 1512 1510 1508 1506 1503
1547 1547 1547 1547 1547 1547 1546 1546 1545 1545 1545 1544 1544 1543 1542 1541 1540 1539 1538 1536 1534 1533 1532 1530 1528 1526 1523 1521 1520 1518 1516 1514 1512 1510 1507 1505 1502 1500
1544 1544 1544 1544 1544 1544 1544 1543 1543 1542 1542 1541 1540 1540 1539 1538 1537 1536 1535 1534 1532 1530 1529 1527 1525 1523 1521 1519 1517 1515 1513 1511 1508 1506 1504 1502 1499 1497
1541 1541 1541 1541 1541 1541 1541 1540 1540 1539 1538 1538 1537 1536 1535 1534 1533 1532 1531 1530 1529 1527 1526 1524 1522 1520 1518 1515 1513 1511 1510 1507 1505 1503 1500 1498 1496 1493
1538 1538 1538 1538 1538 1537 1537 1537 1537 1536 1535 1534 1533 1532 1532 1531 1530 1529 1528 1526 1525 1524 1522 1520 1519 1516 1514 1512 1510 1507 1505 1503 1501 1499 1496 1494 1491 1489
1533 1534 1534 1534 1534 1534 1534 1533 1533 1532 1531 1530 1529 1529 1528 1527 1526 1525 1524 1522 1521 1520 1518 1517 1515 1513 1510 1508 1506 1504 1502 1500 1497 1495 1493 1490 1487 1485
1529 1529 1529 1529 1529 1529 1529 1529 1529 1528 1528 1527 1526 1525 1524 1523 1522 1521 1520 1518 1517 1515 1514 1513 1511 1509 1507 1505 1502 1500 1498 1496 1493 1491 1488 1485 1483 1481
1524 1524 1524 1525 1525 1525 1525 1524 1524 1524 1524 1523 1522 1521 1520 1519 1518 1517 1516 1514 1512 1511 1509 1508 1506 1505 1503 1500 1499 1496 1494 1492 1489 1487 1484 1481 1478 1477
1519 1519 1520 1520 1520 1520 1520 1520 1520 1520 1520 1519 1518 1517 1516 1515 1514 1513 1511 1510 1508 1507 1505 1504 1502 1500 1498 1495 1494 1493 1490 1487 1485 1483 1480 1477 1474 1471
1515 1515 1515 1515 1515 1515 1516 1515 1515 1515 1515 1515 1514 1513 1512 1511 1510 1508 1507 1506 1504 1503 1501 1499 1498 1496 1494 1492 1489 1488 1487 1484 1481 1478 1475 1473 1470 1468
1510 1510 1510 1510 1511 1511 1511 1511 1510 1510 1510 1510 1509 1508 1507 1506 1505 1504 1503 1501 1500 1498 1496 1495 1493 1492 1490 1488 1486 1483 1482 1480 1478 1475 1471 1468 1464 1461
1505 1505 1506 1506 1506 1506 1506 1506 1505 1505 1505 1505 1504 1503 1502 1501 1500 1499 1498 1497 1495 1494 1492 1491 1489 1488 1486 1484 1481 1478 1476 1475 1473 1471 1468 1465 1462 1457
1500 1501 1501 1501 1501 1501 1501 1501 1501 1500 1500 1499 1499 1498 1497 1496 1495 1494 1493 1492 1491 1489 1488 1486 1484 1483 1481 1479 1477 1474 1472 1470 1467 1465 1463 1461 1459 1456